[[{"header":{"parameterUnit":"m.s-1","parameterCategory":1,"la1":30.2991,"la2":30.254,"lo1":-89.0895,"lo2":-89.0444,"dy":0.0017,"dx":0.0017,"nx":28,"ny":28,"refTime":"2024-02-25T09:00:00:Z","depth":0,"parameterNumber":2,"parameterNumberName":"U-component_of_WINDS"},"data":[0,0,0,0,0,0,0,0,0,0,0,0,0,0,0,0,0,0,0,0,0,0,0,0,0,0,0,0,0,0,0,0,0,0,0,0,0,0,0,0,0,0,0,0,0,0,0,0,0,0,0,0,0,0,0,0,0,0,-0.6534,-0.6536,0,-0.6711,-0.6713,-0.6715,-0.6798,-0.6798,-0.6798,-0.6798,-0.6978,-0.6983,-0.6988,0,0,0,0,0,0,0,0,0,0,0,0,0,-0.6267,-0.6271,-0.6534,-0.6536,-0.6539,-0.6711,-0.6713,-0.6715,-0.6798,-0.6798,-0.6798,-0.6798,-0.6977,-0.6982,-0.6988,0,0,0,0,0,0,0,0,0,0,0,0,0,-0.6407,-0.6273,-0.6534,-0.6601,-0.6608,-0.671,-0.6713,-0.6716,-0.6798,-0.6798,-0.6798,-0.6798,-0.6975,-0.6982,-0.6989,-0.7038,0,0,-0.7012,-0.7015,0,0,0,0,0,0,0,0,-0.6399,-0.6417,-0.6589,-0.6596,-0.6605,-0.6732,-0.6685,-0.6824,-0.6798,-0.6726,-0.6798,-0.6798,-0.6897,-0.691,-0.6944,-0.7046,-0.7054,-0.7012,-0.7017,-0.702,-0.7022,0,0,0,0,0,0,0,-0.6389,-0.641,-0.6604,-0.6591,-0.6601,-0.6621,-0.6641,-0.6712,-0.681,-0.6732,-0.6739,-0.6759,-0.6901,-0.6937,-0.6949,-0.7057,-0.7012,-0.7019,-0.7023,-0.7026,-0.7206,-0.7206,0,0,0,0,0,0,-0.6369,-0.6401,-0.6599,-0.6609,-0.65,-0.6626,-0.6648,-0.6692,-0.681,-0.6827,-0.6758,-0.6762,-0.6924,-0.694,-0.6955,-0.7019,-0.702,-0.7027,-0.7031,-0.7205,-0.7206,-0.7206,0,0,0,0,0,0,-0.6363,-0.6386,-0.6591,-0.6507,-0.6535,-0.6631,-0.6679,-0.6695,-0.6731,-0.6829,-0.6847,-0.6777,-0.6925,-0.6945,-0.7016,-0.7027,-0.703,-0.7037,-0.7205,-0.7206,-0.7206,-0.7147,0,0,0,0,0,0,-0.6355,-0.6383,-0.6403,-0.6507,-0.6539,-0.665,-0.668,-0.6699,-0.6743,-0.6749,-0.6851,-0.6868,-0.6926,-0.7005,-0.7024,-0.7037,-0.7043,-0.7205,-0.7205,-0.7206,-0.7149,-0.7146,-0.7143,0,0,0,0,0,-0.6345,-0.638,-0.6404,-0.6427,-0.6566,-0.665,-0.6669,-0.6735,-0.6744,-0.6764,-0.6827,-0.6865,-0.7022,-0.7011,-0.7033,-0.7049,-0.7204,-0.7205,-0.7206,-0.715,-0.7147,-0.7143,0,0,0,0,0,0,-0.6276,-0.6395,-0.6423,-0.6492,-0.656,-0.6664,-0.6693,-0.6729,-0.6796,-0.6799,-0.6878,-0.69,-0.6964,-0.7014,-0.7,-0.7101,-0.7117,-0.7122,-0.7067,-0.7064,-0.7061,-0.7048,-0.7049,0,0,0,0,0,-0.6268,-0.6327,-0.6428,-0.6479,-0.6512,-0.6596,-0.6635,-0.668,-0.6754,-0.6783,-0.6851,-0.6921,-0.6986,-0.7028,-0.7093,-0.7156,-0.7179,-0.7177,-0.7174,-0.7172,-0.7175,-0.7211,-0.7211,-0.7209,-0.7209,-0.7209,0,0,-0.6254,-0.6326,-0.6359,-0.6467,-0.6525,-0.6584,-0.662,-0.6681,-0.6724,-0.6792,-0.6864,-0.6916,-0.6999,-0.7066,-0.7098,-0.7109,-0.7181,-0.7173,-0.717,-0.7175,-0.7212,-0.7212,-0.7212,-0.7209,-0.7209,-0.7209,0,0,-0.6258,-0.6319,-0.6368,-0.6425,-0.6512,-0.6567,-0.6578,-0.6676,-0.6713,-0.6786,-0.6838,-0.6891,-0.7002,-0.7058,-0.7102,-0.7124,-0.716,-0.7143,-0.7129,-0.7162,-0.7162,-0.7163,-0.717,-0.7172,-0.7146,-0.7146,-0.7146,0,-0.623,-0.632,-0.6389,-0.6446,-0.6492,-0.6555,-0.6604,-0.6656,-0.676,-0.679,-0.68,-0.6939,-0.7,-0.708,-0.7085,-0.7118,-0.7133,-0.7132,-0.7157,-0.7158,-0.7159,-0.7167,-0.717,-0.7143,-0.7143,-0.7144,-0.7144,0,-0.628,-0.6342,-0.6371,-0.6468,-0.6517,-0.657,-0.6646,-0.6687,-0.6727,-0.678,-0.6852,-0.6927,-0.7008,-0.703,-0.707,-0.7115,-0.7119,-0.7141,-0.7159,-0.7156,-0.7164,-0.7168,-0.7139,-0.714,-0.7141,-0.7142,0,0,-0.6248,-0.6381,-0.6391,-0.6435,-0.6534,-0.6583,-0.6638,-0.6717,-0.675,-0.6818,-0.6866,-0.6957,-0.6978,-0.7027,-0.7074,-0.7103,-0.7114,-0.7122,-0.7125,-0.7118,-0.7168,-0.7151,-0.7153,-0.7139,-0.714,-0.714,-0.7161,0,-0.6266,-0.6368,-0.6429,-0.6506,-0.6563,-0.6622,-0.667,-0.6735,-0.6786,-0.6841,-0.6898,-0.6961,-0.6984,-0.7014,-0.7045,-0.7106,-0.7126,-0.7106,-0.7184,-0.7186,-0.7162,-0.7158,-0.714,-0.7157,-0.7165,-0.7166,-0.7166,0,-0.6301,-0.6367,-0.6449,-0.654,-0.6566,-0.6608,-0.6684,-0.6736,-0.6811,-0.6846,-0.6899,-0.6945,-0.7004,-0.7015,-0.7098,-0.7083,-0.7118,-0.7152,-0.7155,-0.7165,-0.7176,-0.7168,-0.7163,-0.7166,-0.7172,-0.7172,-0.7171,0,-0.6268,-0.6378,-0.6441,-0.6477,-0.6585,-0.6612,-0.6658,-0.6733,-0.6776,-0.6842,-0.687,-0.6942,-0.6982,-0.7036,-0.71,-0.7102,-0.7176,-0.7193,-0.7206,-0.7204,-0.722,-0.7218,-0.7221,-0.7242,-0.7242,-0.7241,-0.7241,0,-0.6282,-0.6329,-0.6427,-0.6466,-0.652,-0.659,-0.6642,-0.6693,-0.6758,-0.6808,-0.6863,-0.6908,-0.6989,-0.7044,-0.7094,-0.7154,-0.7172,-0.7201,-0.7214,-0.7197,-0.7193,-0.7221,-0.7222,-0.7242,-0.7242,-0.7242,-0.7242,0,-0.6256,-0.6323,-0.6395,-0.649,-0.6515,-0.6551,-0.6633,-0.6672,-0.6724,-0.6786,-0.6804,-0.6887,-0.6954,-0.7022,-0.7113,-0.7147,-0.7205,-0.7223,-0.718,-0.7187,-0.7197,-0.7195,-0.7218,-0.7225,-0.724,-0.724,-0.724,0,-0.626,-0.6298,-0.6396,-0.6433,-0.6477,-0.6536,-0.6579,-0.6649,-0.6691,-0.6778,-0.6806,-0.6877,-0.6938,-0.7041,-0.7109,-0.7179,-0.7198,-0.7202,-0.7209,-0.719,-0.7198,-0.7195,-0.7199,-0.7199,-0.7199,-0.7198,-0.7198,0,-0.6261,-0.6292,-0.6352,-0.6423,-0.6473,-0.6532,-0.6594,-0.662,-0.6702,-0.6747,-0.6815,-0.6862,-0.6954,-0.7023,-0.71,-0.7147,-0.7186,-0.7195,-0.7201,-0.7184,-0.7158,-0.7172,-0.7173,-0.7194,-0.7195,-0.7195,-0.7195,-0.7195,-0.6251,-0.6286,-0.636,-0.6425,-0.6478,-0.6534,-0.6575,-0.6632,-0.669,-0.677,-0.6807,-0.6876,-0.6948,-0.7055,-0.7101,-0.7155,-0.7166,-0.7176,-0.7179,-0.718,-0.7176,-0.7148,-0.7169,-0.717,-0.717,-0.717,-0.717,0,-0.6254,-0.6304,-0.6362,-0.6446,-0.6496,-0.6527,-0.6596,-0.6636,-0.6696,-0.676,-0.6817,-0.6895,-0.6962,-0.7034,-0.7105,-0.7135,-0.7154,-0.7151,-0.715,-0.716,-0.7162,-0.7149,-0.7134,-0.7134,-0.7134,-0.7134,-0.7134,-0.7134,-0.6262,-0.6323,-0.6362,-0.645,-0.65,-0.6567,-0.6604,-0.6655,-0.6706,-0.679,-0.6846,-0.6892,-0.6959,-0.7035,-0.7098,-0.7117,-0.7141,-0.7132,-0.7157,-0.7157,-0.716,-0.7163,-0.7151,-0.7137,-0.7137,-0.7151,-0.7151,-0.7151]},{"header":{"parameterUnit":"m.s-1","parameterCategory":1,"la1":30.2991,"la2":30.254,"lo1":-89.0895,"lo2":-89.0444,"dy":0.0017,"dx":0.0017,"nx":28,"ny":28,"refTime":"2024-02-25T09:00:00:Z","depth":0,"parameterNumber":3,"parameterNumberName":"V-component_of_WINDS"},"data":[0,0,0,0,0,0,0,0,0,0,0,0,0,0,0,0,0,0,0,0,0,0,0,0,0,0,0,0,0,0,0,0,0,0,0,0,0,0,0,0,0,0,0,0,0,0,0,0,0,0,0,0,0,0,0,0,0,0,3.4271,3.4272,0,3.4383,3.4385,3.4386,3.4456,3.4456,3.4456,3.4457,3.4573,3.4576,3.4579,0,0,0,0,0,0,0,0,0,0,0,0,0,3.4119,3.4121,3.4271,3.4272,3.4273,3.4383,3.4385,3.4386,3.4456,3.4456,3.4456,3.4457,3.4572,3.4576,3.4579,0,0,0,0,0,0,0,0,0,0,0,0,0,3.4203,3.4122,3.427,3.4321,3.4327,3.4383,3.4385,3.4387,3.4455,3.4456,3.4457,3.4457,3.4571,3.4575,3.458,3.4594,0,0,3.4592,3.4594,0,0,0,0,0,0,0,0,3.4199,3.4209,3.4312,3.4318,3.4324,3.4406,3.4374,3.4456,3.4455,3.4407,3.4457,3.4457,3.4517,3.4526,3.4546,3.46,3.4605,3.4593,3.4595,3.4597,3.4598,0,0,0,0,0,0,0,3.4193,3.4205,3.4315,3.4314,3.4321,3.434,3.4352,3.439,3.4458,3.4411,3.4416,3.4429,3.4521,3.4542,3.4549,3.4606,3.4592,3.4596,3.4599,3.46,3.4682,3.4681,0,0,0,0,0,0,3.4178,3.4199,3.4312,3.4319,3.4261,3.4342,3.4356,3.4379,3.4457,3.447,3.4428,3.4431,3.4534,3.4544,3.4554,3.4578,3.4597,3.4601,3.4603,3.4682,3.4681,3.4681,0,0,0,0,0,0,3.4175,3.4188,3.4307,3.426,3.4277,3.4344,3.4369,3.4381,3.4402,3.447,3.4483,3.4437,3.4535,3.4548,3.4584,3.4583,3.4603,3.4606,3.4682,3.4682,3.4681,3.4626,0,0,0,0,0,0,3.417,3.4186,3.4191,3.426,3.4279,3.4335,3.4369,3.4383,3.4409,3.4415,3.4482,3.4494,3.4537,3.4578,3.4588,3.4589,3.461,3.4683,3.4682,3.4681,3.4628,3.4623,3.462,0,0,0,0,0,3.4164,3.4171,3.4191,3.4204,3.4287,3.4334,3.4346,3.4394,3.4409,3.4415,3.446,3.4491,3.4581,3.4581,3.4593,3.4595,3.4683,3.4682,3.4681,3.463,3.4624,3.462,0,0,0,0,0,0,3.4099,3.418,3.4204,3.4232,3.4276,3.4346,3.4356,3.4387,3.4427,3.4431,3.449,3.4505,3.4536,3.457,3.4568,3.4616,3.4636,3.4638,3.4593,3.4588,3.4584,3.4575,3.4613,0,0,0,0,0,3.4088,3.4119,3.4189,3.4207,3.4228,3.4288,3.431,3.4345,3.4392,3.4411,3.4458,3.4504,3.4543,3.4567,3.4606,3.4633,3.465,3.4641,3.4637,3.4633,3.4634,3.4654,3.4651,3.4679,3.4679,3.4679,0,0,3.4066,3.4114,3.413,3.4195,3.4233,3.4265,3.4303,3.4334,3.436,3.4416,3.4454,3.449,3.4546,3.4578,3.4595,3.4607,3.4631,3.4632,3.4629,3.4632,3.4653,3.465,3.4648,3.4678,3.4678,3.4678,0,0,3.4041,3.408,3.4101,3.4139,3.4196,3.4236,3.4241,3.4307,3.4334,3.4373,3.4417,3.4448,3.4513,3.4552,3.458,3.4573,3.4605,3.4584,3.4562,3.4581,3.4579,3.4577,3.4577,3.4576,3.4585,3.4585,3.4585,0,3.4006,3.4056,3.4108,3.4138,3.4167,3.422,3.4243,3.4277,3.4344,3.4363,3.4376,3.4461,3.4502,3.4545,3.4544,3.4564,3.4574,3.4577,3.4575,3.4574,3.4573,3.4574,3.4573,3.4582,3.4582,3.4583,3.4583,0,3.4011,3.4045,3.4055,3.4119,3.4149,3.4175,3.4233,3.4257,3.4289,3.4329,3.437,3.4421,3.4473,3.4486,3.4517,3.4535,3.4541,3.4563,3.4585,3.4567,3.4568,3.4569,3.4578,3.4579,3.458,3.4581,0,0,3.3947,3.4042,3.4045,3.4076,3.4144,3.4172,3.4202,3.4253,3.4274,3.4319,3.4347,3.4402,3.4424,3.4456,3.4493,3.4509,3.4503,3.453,3.4532,3.4525,3.4529,3.4513,3.4512,3.4525,3.4525,3.4525,3.4525,0,3.3934,3.399,3.4039,3.4077,3.4111,3.4163,3.419,3.4235,3.4274,3.4309,3.4352,3.4391,3.4416,3.4436,3.4454,3.45,3.4505,3.4501,3.4553,3.4554,3.4538,3.4512,3.4495,3.4492,3.4526,3.4526,3.4526,0,3.3926,3.397,3.4011,3.4079,3.4095,3.4118,3.4171,3.4203,3.4257,3.4284,3.4321,3.4359,3.4396,3.4414,3.4465,3.4461,3.4486,3.4512,3.4513,3.4521,3.4539,3.4521,3.4492,3.4492,3.4527,3.4527,3.4527,0,3.3878,3.3947,3.3982,3.4007,3.4086,3.4102,3.4135,3.419,3.4219,3.4265,3.4284,3.4334,3.4361,3.44,3.4452,3.446,3.4499,3.4521,3.4524,3.4523,3.453,3.4529,3.4506,3.4544,3.4544,3.4544,3.4544,0,3.3859,3.3883,3.3962,3.3983,3.4013,3.407,3.4098,3.4136,3.4185,3.4216,3.4265,3.4293,3.4359,3.4396,3.4438,3.4476,3.4487,3.4511,3.4522,3.4508,3.4505,3.4525,3.4527,3.4544,3.4544,3.4544,3.4544,0,3.381,3.3864,3.3905,3.3978,3.3997,3.4015,3.4078,3.4102,3.4144,3.4183,3.4196,3.4262,3.4308,3.4364,3.4428,3.4456,3.4491,3.4506,3.4472,3.4479,3.448,3.4479,3.447,3.4472,3.4506,3.4506,3.4505,0,3.3795,3.3815,3.389,3.3914,3.3947,3.3985,3.4015,3.4073,3.4103,3.4167,3.4184,3.4234,3.4277,3.4349,3.4404,3.4454,3.4472,3.4465,3.4479,3.4465,3.4474,3.4472,3.4476,3.4461,3.446,3.446,3.4459,0,3.3763,3.3789,3.383,3.3881,3.3916,3.3959,3.4004,3.4021,3.4089,3.412,3.4168,3.4202,3.4268,3.4318,3.4376,3.4412,3.4448,3.4455,3.4458,3.4444,3.4425,3.4437,3.4463,3.4455,3.4455,3.4455,3.4456,3.4456,3.3732,3.3753,3.381,3.3855,3.3895,3.3937,3.3963,3.4009,3.405,3.4109,3.4141,3.4189,3.4246,3.4327,3.4363,3.4402,3.4414,3.4419,3.4421,3.4421,3.4418,3.4417,3.4413,3.4413,3.4413,3.4413,3.4413,0,3.3704,3.3744,3.3784,3.3847,3.3883,3.3913,3.3965,3.3994,3.4035,3.4085,3.4127,3.4184,3.4233,3.4292,3.4346,3.4366,3.4384,3.4379,3.4378,3.4387,3.4403,3.4395,3.4364,3.4364,3.4364,3.4364,3.4364,3.4364,3.3694,3.3732,3.3765,3.3825,3.3865,3.3913,3.394,3.398,3.402,3.4081,3.4123,3.4161,3.4215,3.4274,3.4321,3.4338,3.4356,3.4346,3.4367,3.4381,3.4385,3.4389,3.4382,3.4349,3.4349,3.4348,3.4348,3.4348]}]]